Starlink 3936

operational
NORAD ID: 52674 Int'l Des: 2022-053 Owner: SPXS Country: US Constellation: starlink
LEOCIRCULAR

About Starlink 3936

Description loading...

Live Position

Loading 3D Globe...

Upcoming Passes

Altitude History

Altitude vs Time

uPlot chart will show altitude changes over time

Two-Line Element Set

1 52674U 22053U 25304.48259925 .00003117 00000-0 21386-3 0 9999
2 52674 53.2184 14.1532 0001409 82.9787 277.1366 15.08831521191546
Epoch: Oct 31, 2025 • Age: 24 hours

Current Status

Altitude 541.7 km
Velocity 7.60 km/s
Sub-Earth Point 35.19°N, 63.37°W
Launch Date May 18, 2022
Age 3.4 years
Type internet

Technical Details

Classification Payload
Mass 297.00 kg
Dry Mass 275.00 kg
Total Mass 297.00 kg
Length 0.20 m
Diameter 2.80 m
Span 9.00 m
Shape Box + pan
Manufacturer SPXS
Bus Type Starlink
Phase Status In Orbit
Owner/State SPXS/US

Large Constellations

Loading constellations...